INTELSAT 15 (IS-15) (36106 NORAD) Tracking and Keplerian Element Data

This shows tracking and keplerian element data for the satellite.

Feedback or suggestion? Click here.




ElementValue
Catalog36106
NameINTELSAT 15 (IS-15)
Epoch Orbit1234
Epoch Day201.55952235
Epoch Year2018
RAAN71.4554
Inclination0.0115
Eccentricity0.0002319
Argument of Perigee42.7327
Mean Anonmoly110.6591
Mean Motion1.00272548
Decay Rate-2.02E-06
L11 36106U 09067A 18201.55952235 -.00000202 00000-0 00000-0 0 9991
L22 36106 0.0115 71.4554 0002319 42.7327 110.6591 1.00272548 12343

Live tracking and technical data element details for INTELSAT 15 (IS-15) (NORAD 36106). INTELSAT 15 (IS-15) can be tracked NOW for your location showing map with azimuth and elevation plus other details from your city location.

Track the satellite on the map from your city or location and see movement details for azimuth, elevation, latitude, longitude, range, height, and movement on the map or in text.







IsCatalogInMostPopularTable: catalog: 36106, numindb: 38
Update: records affected: 1



GetName: 36106 INTELSAT 15 (IS-15)

Hit Count: updated at: Sat, 21 Jul 2018 07:53:43 GMT